Weather History for Muskegon, MI

Change the Weather History Date:

Thursday, February 7, 2013

  Actual Average Record
Temperature  
Mean Temperature 31 °F 26 °F  
Max Temperature 32 °F 31 °F 49 °F (1928)
Min Temperature 29 °F 20 °F -11 °F (1905)
Degree Days  
Heating Degree Days 34 39  
Month to date heating degree days 324 277  
Since 1 July heating degree days 3637 3949  
Cooling Degree Days 0 0  
Month to date cooling degree days 0 0  
Year to date cooling degree days 0 0  
Moisture  
Dew Point 26 °F    
Average Humidity 78    
Maximum Humidity 92    
Minimum Humidity 63    
Precipitation  
Precipitation 0.96 in 0.06 in 0.96 in (2013)
Month to date precipitation 1.49 0.40  
Year to date precipitation 6.97 2.43  
Snow  
Snow 9.70 in 0.70 in 9.70 in (2013)
Month to date snowfall 23.7 5.6  
Since 1 July snowfall 63.3 68.7  
Snow Depth 5.00 in    
Sea Level Pressure  
Sea Level Pressure 30.04 in    
Wind  
Wind Speed 10 mph (East)    
Max Wind Speed 16 mph    
Max Gust Speed 18 mph    
Visibility 2 miles    
Events Fog , Snow    
T = Trace of Precipitation, MM = Missing Value Source: NWS Daily Summary

Daily Weather History Graph

Daily Weather History Graph

Search for Another Location

Airport:

Trip Planner

Search our weather history database for the weather conditions in past years. The results will help you decide how hot, cold, wet, or windy it might be!

Date:

Astronomy

Feb. 07, 2013 Rise Set
Actual Time 7:53 AM EST 6:05 PM EST
Civil Twilight 7:23 AM EST 6:35 PM EST
Nautical Twilight 6:49 AM EST 7:09 PM EST
Astronomical Twilight 6:16 AM EST 7:42 PM EST
Moon 5:34 AM EST (2/7) 3:27 PM EST (2/7)
Length of Visible Light 11h 12m
Length of Day
10h 12m
Waning Crescent, 9% of the Moon is Illuminated
Feb 7
Waning Crescent
Feb 10
New
Feb 17
First Quarter
Feb 25
Full
Mar 4
Last Quarter

Hourly Weather History & Observations

Time (EST) Temp. Windchill Dew Point Humidity Pressure Visibility Wind Dir Wind Speed Gust Speed Precip Events Conditions
12:48 AM 30.2 °F 21.9 °F 21.2 °F 69% 30.18 in 2.5 mi SE 9.2 mph - 0.00 in Snow Light Snow
12:55 AM 30.0 °F 21.1 °F 21.9 °F 72% 30.21 in 1.8 mi ESE 10.4 mph - 0.00 in Snow Light Snow
1:37 AM 28.4 °F 19.1 °F 24.8 °F 86% 30.18 in 2.0 mi SE 10.4 mph - 0.00 in Snow Light Snow
1:51 AM 28.4 °F 19.7 °F 24.8 °F 86% 30.18 in 3.0 mi SE 9.2 mph - 0.00 in Snow Light Snow
1:55 AM 28.9 °F 20.4 °F 24.1 °F 82% 30.20 in 4.0 mi SE 9.2 mph - 0.00 in   Haze
2:23 AM 28.4 °F 17.5 °F 23.0 °F 80% 30.16 in 2.5 mi ESE 13.8 mph - 0.00 in Snow Light Snow
2:37 AM 28.4 °F 19.1 °F 23.0 °F 80% 30.17 in 4.0 mi SE 10.4 mph - 0.00 in Snow Light Snow
2:55 AM 28.9 °F 19.8 °F 21.9 °F 75% 30.18 in 6.0 mi ESE 10.4 mph - 0.00 in   Haze
3:55 AM 30.0 °F 20.0 °F 21.0 °F 69% 30.17 in 8.0 mi SE 12.7 mph - N/A   Overcast
4:55 AM 30.0 °F 21.7 °F 21.0 °F 69% 30.17 in 9.0 mi SE 9.2 mph - N/A   Overcast
5:55 AM 28.9 °F 17.7 °F 21.0 °F 72% 30.14 in 8.0 mi SE 15.0 mph - N/A   Overcast
6:55 AM 30.0 °F 21.1 °F 21.0 °F 69% 30.14 in 8.0 mi SE 10.4 mph - N/A   Overcast
7:55 AM 30.0 °F 20.5 °F 21.0 °F 69% 30.14 in 8.0 mi SE 11.5 mph - N/A   Overcast
8:31 AM 30.2 °F 21.3 °F 21.2 °F 69% 30.11 in 1.2 mi SE 10.4 mph - 0.00 in Snow Light Snow
8:44 AM 28.4 °F 18.0 °F 24.8 °F 86% 30.11 in 0.8 mi SE 12.7 mph - 0.00 in Snow Light Snow
8:55 AM 28.9 °F 18.6 °F 25.0 °F 85% 30.14 in 0.5 mi SE 12.7 mph - 0.01 in Fog , Snow Snow
9:55 AM 28.9 °F 19.2 °F 25.0 °F 85% 30.12 in 0.5 mi ESE 11.5 mph - 0.03 in Fog , Snow Snow
10:55 AM 28.9 °F 19.2 °F 25.0 °F 85% 30.11 in 0.8 mi ESE 11.5 mph - 0.03 in Snow Light Snow
11:27 AM 30.2 °F 22.6 °F 26.6 °F 86% 30.07 in 0.8 mi ESE 8.1 mph - 0.01 in Snow Light Snow
11:55 AM 30.9 °F 22.8 °F 27.0 °F 85% 30.09 in 0.8 mi ESE 9.2 mph - 0.02 in Snow Light Snow
12:55 PM 30.9 °F 22.2 °F 27.0 °F 85% 30.06 in 0.8 mi East 10.4 mph - 0.03 in Snow Light Snow
1:26 PM 30.2 °F 21.9 °F 28.4 °F 93% 30.02 in 0.5 mi ESE 9.2 mph - 0.02 in Fog , Snow Snow
1:41 PM 30.2 °F 24.3 °F 28.4 °F 93% 30.01 in 0.8 mi East 5.8 mph - 0.03 in Snow Light Snow
1:49 PM 30.2 °F 22.6 °F 28.4 °F 93% 30.01 in 0.8 mi ESE 8.1 mph - 0.04 in Snow Light Snow
1:55 PM 30.9 °F 23.5 °F 28.0 °F 89% 30.04 in 0.5 mi ESE 8.1 mph - 0.04 in Fog , Snow Snow
2:05 PM 30.2 °F 22.6 °F 28.4 °F 93% 30.01 in 0.5 mi ESE 8.1 mph - 0.01 in Fog , Snow Snow
2:40 PM 30.2 °F 23.4 °F 28.4 °F 93% 30.00 in 0.2 mi East 6.9 mph - 0.06 in Fog , Snow Snow
2:51 PM 30.2 °F 25.4 °F 28.4 °F 93% 29.99 in 0.2 mi East 4.6 mph - 0.08 in Fog , Snow Snow
2:55 PM 30.9 °F 25.2 °F 28.9 °F 92% 30.02 in 0.2 mi East 5.8 mph - 0.09 in Fog , Snow Snow
3:55 PM 32.0 °F 25.6 °F 28.9 °F 88% 29.99 in 0.2 mi ENE 6.9 mph - 0.11 in Fog , Snow Snow
4:55 PM 32.0 °F 24.8 °F 28.9 °F 88% 29.97 in 0.2 mi ENE 8.1 mph - 0.12 in Fog , Snow Heavy Snow
5:27 PM 32.0 °F 23.0 °F 28.4 °F 87% 29.93 in 0.2 mi NE 11.5 mph - 0.05 in Fog , Snow Light Snow
5:46 PM 32.0 °F 23.6 °F 28.4 °F 87% 29.92 in 0.2 mi NE 10.4 mph - 0.08 in Fog , Snow Snow
5:55 PM 32.0 °F 23.6 °F 28.9 °F 88% 29.94 in 0.2 mi ENE 10.4 mph - 0.09 in Fog , Snow Snow
6:19 PM 32.0 °F 24.2 °F 30.2 °F 93% 29.92 in 0.2 mi East 9.2 mph - 0.03 in Fog , Snow Snow
6:55 PM 32.0 °F 23.6 °F 30.0 °F 92% 29.94 in 0.2 mi ENE 10.4 mph - 0.09 in Fog , Snow Snow
7:55 PM 32.0 °F 24.8 °F 28.9 °F 88% 29.94 in 0.2 mi NE 8.1 mph - 0.10 in Fog , Snow Snow
8:55 PM 30.9 °F 22.8 °F 28.0 °F 89% 29.95 in 0.2 mi NE 9.2 mph - 0.10 in Fog , Snow Snow
9:16 PM 30.2 °F 22.6 °F 28.4 °F 93% 29.92 in 0.2 mi NE 8.1 mph - 0.02 in Snow Light Snow
9:34 PM 30.2 °F 21.9 °F 28.4 °F 93% 29.92 in 0.2 mi ENE 9.2 mph - 0.03 in Snow Light Snow
9:41 PM 30.2 °F 21.9 °F 28.4 °F 93% 29.92 in 0.2 mi NE 9.2 mph - 0.03 in Snow Light Snow
9:48 PM 30.2 °F 22.6 °F 28.4 °F 93% 29.92 in 0.2 mi NE 8.1 mph - 0.04 in Snow Light Snow
9:55 PM 30.9 °F 23.5 °F 28.0 °F 89% 29.94 in 0.2 mi NE 8.1 mph - 0.04 in Snow Light Snow
10:27 PM 30.2 °F 21.9 °F 28.4 °F 93% 29.90 in 0.8 mi ENE 9.2 mph - 0.02 in Snow Light Snow
10:45 PM 30.2 °F 21.3 °F 28.4 °F 93% 29.90 in 1.2 mi NE 10.4 mph - 0.03 in Snow Light Snow
10:55 PM 30.9 °F 23.5 °F 28.0 °F 89% 29.93 in 1.2 mi NE 8.1 mph - 0.03 in Snow Light Snow
11:16 PM 30.2 °F 23.4 °F 28.4 °F 93% 29.89 in 1.2 mi NE 6.9 mph - 0.01 in Snow Light Snow
11:47 PM 30.2 °F 22.6 °F 28.4 °F 93% 29.89 in 1.2 mi NNE 8.1 mph - 0.02 in Snow Light Snow
11:55 PM 30.9 °F 24.3 °F 28.0 °F 89% 29.92 in 1.5 mi NNE 6.9 mph - 0.03 in Snow Light Snow